Flag for Turkey Weather past 2 weeks in Mersin, Turkey

Now
75 °F

Passing clouds.


Feels Like: 76 °F
Forecast: 65 / 94 °F
Wind: 3 mph from East

Location: Adana / Sakirpasa

Current Time: Sep 5, 2015 at 2:22:16 AM

Latest Report: Sep 5, 2015 at 1:50 AM


Visibility: N/A

Pressure: 29.83 "Hg

Humidity: 78%

Dew point: 68 °F

Location of MersinLocation

Historic Weather in Mersin — Graph

°F

Mersin temperature yesterday

Maximum temperature yesterday: 93 °F (at 1:50 PM)
Minimum temperature yesterday: 75 °F (at 5:20 AM)
Average temperature yesterday: 83 °F

Past Weeks' High & Low Weather Summary

 TemperatureHumidityPressure
High97 °F (Aug 28, 2:20 PM)94% (Aug 21, 5:50 AM)29.86 "Hg (Aug 21, 5:50 AM)
Low66 °F (Aug 30, 6:20 AM)14% (Aug 26, 11:20 AM)29.62 "Hg (Aug 23, 3:50 PM)
Average84 °F58%29.76 "Hg
* Reported Aug 21 12:20 AM — Sep 5 12:20 AM, Mersin, Weather by CustomWeather, © 2015

Note: Actual official high and low records may vary slightly from our data, if they occured in-between our weather recording intervals... More about our weather records

Advertising

Mersin weather history for previous 24 hours

 ConditionsComfort  
Time TempWeatherWind HumidityBarometerVisibility
12:20 AM
Sat, Sep 5
75 °FPassing clouds.No wind78%29.83 "HgN/A
11:50 PM
Fri, Sep 4
75 °FPassing clouds.No wind78%29.83 "HgN/A
11:20 PM75 °FPassing clouds.2 mph78%29.83 "HgN/A
10:50 PM77 °FPassing clouds.3 mph79%29.83 "HgN/A
10:20 PM77 °FPassing clouds.1 mph79%29.83 "HgN/A
9:50 PM77 °FPassing clouds.2 mph79%29.83 "HgN/A
9:20 PM77 °FPassing clouds.1 mph79%29.83 "HgN/A
8:50 PM79 °FPassing clouds.3 mph74%29.83 "HgN/A
8:20 PM79 °FPassing clouds.3 mph74%29.83 "HgN/A
7:50 PM81 °FPassing clouds.5 mph70%29.80 "HgN/A
7:20 PM82 °FPassing clouds.7 mph66%29.80 "Hg6 mi
6:50 PM84 °FScattered clouds.9 mph62%29.80 "Hg4 mi
6:20 PM86 °FScattered clouds.12 mph59%29.80 "HgN/A
5:50 PM88 °FScattered clouds.10 mph52%29.80 "HgN/A
5:20 PM90 °FScattered clouds.12 mph49%29.77 "HgN/A
4:50 PM90 °FScattered clouds.13 mph49%29.77 "HgN/A
4:20 PM91 °FScattered clouds.12 mph44%29.80 "HgN/A
3:50 PM91 °FScattered clouds.10 mph46%29.80 "HgN/A
3:20 PM91 °FScattered clouds.12 mph44%29.80 "HgN/A
2:50 PM93 °FScattered clouds.10 mph41%29.80 "HgN/A
2:20 PM93 °FScattered clouds.10 mph41%29.80 "HgN/A
1:50 PM93 °FScattered clouds.8 mph41%29.80 "HgN/A
1:20 PM91 °FScattered clouds.8 mph44%29.80 "HgN/A
12:50 PM91 °FScattered clouds.6 mph44%29.83 "HgN/A
12:20 PM91 °FScattered clouds.5 mph46%29.83 "HgN/A
11:50 AM88 °FScattered clouds.3 mph55%29.83 "HgN/A
11:20 AM88 °FScattered clouds.5 mph55%29.83 "HgN/A
10:50 AM88 °FScattered clouds.6 mph55%29.83 "HgN/A
10:20 AM86 °FPassing clouds.5 mph62%29.83 "HgN/A
9:50 AM86 °FPassing clouds.5 mph59%29.83 "HgN/A
9:20 AM84 °FPassing clouds.3 mph62%29.83 "HgN/A
8:50 AM82 °FPassing clouds.3 mph70%29.83 "HgN/A
8:20 AM82 °FPassing clouds.3 mph70%29.83 "HgN/A
7:50 AM81 °FPassing clouds.2 mph74%29.83 "HgN/A
7:20 AM79 °FPassing clouds.5 mph84%29.80 "HgN/A
6:50 AM77 °FPassing clouds.No wind83%29.80 "HgN/A
6:20 AM77 °FPassing clouds.6 mph83%29.80 "HgN/A
5:50 AM75 °FClear.6 mph89%29.80 "Hg10 mi
5:20 AM75 °FClear.5 mph89%29.80 "Hg10 mi
4:50 AM77 °FClear.6 mph83%29.80 "Hg10 mi
4:20 AM77 °FClear.5 mph89%29.80 "Hg10 mi
3:50 AM79 °FClear.5 mph84%29.80 "Hg10 mi
3:20 AM79 °FPassing clouds.6 mph84%29.77 "HgN/A
2:50 AM77 °FPassing clouds.5 mph89%29.80 "HgN/A
2:20 AM77 °FPassing clouds.2 mph83%29.80 "HgN/A
Weather by CustomWeather, © 2015

See weather overviewHow to use our weather pages